TimeWET,TemperatureF,Dew PointF,Humidity,Sea Level PressureIn,VisibilityMPH,Wind Direction,Wind SpeedMPH,Gust SpeedMPH,PrecipitationIn,Events,Conditions,WindDirDegrees,DateUTC
12:00 AM,66,64,89,29.89,4,South,10.4,,,,Partly Cloudy,190,2012-10-25 00:00:00
12:00 AM,66.2,64.4,94,29.89,3.7,South,10.4,-,N/A,,Mostly Cloudy,190,2012-10-25 00:00:00
3:00 AM,67,61,77,29.82,,South,9.2,,,,,180,2012-10-25 03:00:00
4:30 AM,68.0,60.8,78,29.77,3.7,South,9.2,-,N/A,,Mostly Cloudy,170,2012-10-25 04:30:00
5:00 AM,68.0,60.8,78,29.77,3.1,South,9.2,-,N/A,Rain,Rain,170,2012-10-25 05:00:00
5:30 AM,68.0,62.6,83,29.77,3.1,South,10.4,-,N/A,Rain,Rain,190,2012-10-25 05:30:00
5:46 AM,66.2,62.6,88,29.77,1.9,SW,12.7,-,N/A,Rain,Rain,220,2012-10-25 05:46:00
6:00 AM,66,63,86,29.79,2,SW,11.5,,,Rain,Rain,230,2012-10-25 06:00:00
6:30 AM,64.4,62.6,94,29.77,1.9,SSW,10.4,24.2,N/A,Rain,Rain,200,2012-10-25 06:30:00
7:20 AM,66.2,62.6,88,29.80,3.7,SW,12.7,-,N/A,,Partly Cloudy,230,2012-10-25 07:20:00
7:30 AM,66.2,62.6,88,29.80,3.7,SW,12.7,-,N/A,,Partly Cloudy,230,2012-10-25 07:30:00
8:00 AM,66.2,62.6,88,29.77,5.0,SSW,10.4,-,N/A,,Mostly Cloudy,200,2012-10-25 08:00:00
8:30 AM,66.2,62.6,88,29.80,5.0,South,10.4,-,N/A,Rain,Rain,180,2012-10-25 08:30:00
9:00 AM,67,63,81,29.80,5,SSW,9.2,,,Rain,Light Rain,210,2012-10-25 09:00:00
9:00 AM,66.2,62.6,88,29.80,5.0,SSW,9.2,-,N/A,,Mostly Cloudy,210,2012-10-25 09:00:00
9:30 AM,68.0,62.6,83,29.80,5.0,SSW,11.5,-,N/A,,Mostly Cloudy,200,2012-10-25 09:30:00
10:00 AM,68.0,62.6,83,29.77,5.0,SSW,15.0,-,N/A,,Mostly Cloudy,200,2012-10-25 10:00:00
10:03 AM,68.0,62.6,83,29.80,2.5,SSW,12.7,-,N/A,Rain-Thunderstorm,Light Thunderstorms and Rain,200,2012-10-25 10:03:00
10:30 AM,62.6,59.0,88,29.80,0.6,SW,21.9,33.4,N/A,Rain-Thunderstorm,Thunderstorms and Rain,230,2012-10-25 10:30:00
11:00 AM,60.8,59.0,94,29.80,1.9,SW,20.7,-,N/A,Rain-Thunderstorm,Light Thunderstorms and Rain,220,2012-10-25 11:00:00
11:30 AM,62.6,60.8,94,29.80,2.5,SSW,15.0,-,N/A,Rain-Thunderstorm,Light Thunderstorms and Rain,210,2012-10-25 11:30:00
12:00 PM,64.4,62.6,94,29.80,2.5,SW,23.0,-,N/A,Rain-Thunderstorm,Light Thunderstorms and Rain,220,2012-10-25 12:00:00
12:15 PM,64.4,62.6,94,29.77,3.1,SW,16.1,-,N/A,Rain,Light Rain,220,2012-10-25 12:15:00
12:30 PM,66.2,64.4,94,29.77,3.1,SW,18.4,-,N/A,Rain,Light Rain,220,2012-10-25 12:30:00
1:00 PM,66.2,64.4,94,29.77,3.1,SSW,24.2,40.3,N/A,Rain,Light Rain,210,2012-10-25 13:00:00
1:30 PM,66.2,62.6,88,29.74,5.0,SSW,15.0,-,N/A,,Mostly Cloudy,200,2012-10-25 13:30:00
2:00 PM,66.2,64.4,94,29.74,5.0,SSW,19.6,-,N/A,,Mostly Cloudy,210,2012-10-25 14:00:00
3:00 PM,69,62,71,29.74,5,SSW,15.0,,,,Partly Cloudy,210,2012-10-25 15:00:00
3:00 PM,69.8,62.6,78,29.74,5.0,SSW,15.0,-,N/A,,Mostly Cloudy,210,2012-10-25 15:00:00
3:30 PM,68.0,62.6,83,29.74,3.7,SSW,16.1,-,N/A,,Mostly Cloudy,200,2012-10-25 15:30:00
4:00 PM,66.2,62.6,88,29.74,3.7,SSW,15.0,-,N/A,Rain,Rain,210,2012-10-25 16:00:00
4:30 PM,64.4,59.0,83,29.74,3.7,SSW,20.7,32.2,N/A,Rain,Rain,200,2012-10-25 16:30:00
5:00 PM,64.4,60.8,88,29.74,5.0,SSW,13.8,-,N/A,Rain,Light Rain,210,2012-10-25 17:00:00
5:30 PM,64.4,60.8,88,29.74,5.0,SSW,13.8,-,N/A,,Mostly Cloudy,210,2012-10-25 17:30:00
6:00 PM,65,60,81,29.76,4,SSW,15.0,,,Rain,Light Rain,200,2012-10-25 18:00:00
6:00 PM,64.4,60.8,88,29.74,3.7,SSW,15.0,-,N/A,Rain,Light Rain,200,2012-10-25 18:00:00
6:30 PM,64.4,60.8,88,29.77,3.7,SSW,13.8,-,N/A,Rain,Light Rain,200,2012-10-25 18:30:00
7:00 PM,64.4,60.8,88,29.77,3.7,South,15.0,-,N/A,Rain,Light Rain,190,2012-10-25 19:00:00
7:30 PM,64.4,60.8,88,29.77,3.7,South,11.5,-,N/A,Rain,Light Rain,180,2012-10-25 19:30:00
8:00 PM,64.4,60.8,88,29.74,3.7,SSW,9.2,-,N/A,Rain,Light Rain,200,2012-10-25 20:00:00
8:30 PM,66.2,62.6,88,29.74,3.7,SSW,11.5,-,N/A,,Mostly Cloudy,200,2012-10-25 20:30:00
9:00 PM,65,62,85,29.76,4,SSW,13.8,,,,Overcast,210,2012-10-25 21:00:00
9:00 PM,66.2,60.8,83,29.74,3.7,SSW,13.8,-,N/A,,Mostly Cloudy,210,2012-10-25 21:00:00
9:30 PM,64.4,60.8,88,29.77,1.2,SW,19.6,31.1,N/A,Rain,Rain Showers,220,2012-10-25 21:30:00
10:00 PM,66.2,62.6,88,29.74,3.7,SW,13.8,-,N/A,,Partly Cloudy,220,2012-10-25 22:00:00
10:30 PM,66.2,62.6,88,29.74,3.7,SW,13.8,-,N/A,,Partly Cloudy,220,2012-10-25 22:30:00
11:00 PM,66.2,62.6,88,29.74,5.0,SSW,13.8,-,N/A,,Scattered Clouds,210,2012-10-25 23:00:00
11:30 PM,66.2,62.6,88,29.74,5.0,SW,16.1,-,N/A,,Scattered Clouds,220,2012-10-25 23:30:00